ONEWEB-0051, 45155

Orbit data source: Space-Track

ONEWEB-0051, 45155 is a payload satellite owned by One Web (UK) in LEO that was launched on Thu, 06 Feb 2020 UTC via a SOYUZ-2-1B launch vehicle from the Tyuratam Missile And Space Complex (TTMTR). Payload-class satellites include a variety of spacecraft equipped with specific instruments for various scientific and technological missions. These include communications satellites like Starlink; space stations such as the ISS; scientific satellites like the Hubble; Earth observation satellites from companies like Planet Labs, Umbra, and HawkEye 360; GPS; miniature CubeSats for education and research; and military/defense satellites.

Loading next visibility...
Identifier
45155, 2020-008AA
Orbit
LEO
Last TLE update
22 hours ago
Origin
Manufacturer
One Web
Mission
Operational Commercial Communications
Bus & Motor
ARROW, Unknown motor
Mass
148 kg wet, ~140 kg dry
Launch date (UTC)
2020-02-06 (5 years ago)
Launch vehicle
SOYUZ-2-1B
Launch site
Tyuratam Missile And Space Complex (TTMTR)
Object type
Payload
Rocket body
Debris
Shape & HBR
Trap Box + 2 Pan, 5 m
Radar Cross Section
2.957 m², Large (>1 m²)

Expand to show TLE details & history

TLE from 22 hours ago
0 ONEWEB-0051
1 45155U 20008AA  25128.48388010 -.00000524  00000-0 -15158-2 0  9995
2 45155  87.8809 101.7443 0002004  89.0878 271.0480 13.11415270258820
Epoch: 2025-05-08T11:36Z
Definitive object data (Epoch: 2025-05-08T11:36:47.24Z)
Latitude
0.00002°
Longitude
60.99375°
Altitude
1,220.551 km
Speed
7.244 km/s
True Right ascension
06h 46m 58s
True Declination
0° 00' 00"
Sunlit
Object was in daylight at TLE epoch
Visualization TLE readout
Latitude
-8.99928°
Longitude
60.47732°
Altitude
1,222.341 km
Speed
7.243 km/s
Apparent Right ascension
06h 20m 02s
Apparent Declination
-23° 08' 12"
Sunlit
Object is in daylight
Visualization observer readout
Local Sidereal Time
17:41:48
Azimuth
331.442° NNW
Elevation
-71.376°
Doppler factor
1
Orbital elements
Apogee altitude
1,216.329 km
Perigee altitude
1,213.286 km
Semi-major axis
7,592.944 km
Eccentricity
0.0002004
Inclination
87.8809°
RAAN
101.7443°
Arg. of periapsis
89.0878°
True anomaly
271.02504°
Mean anomaly
271.048°
Eccentric anomaly
271.03652°
Mean motion
3.28041 °/min
BSTAR
-0.0015158
Orbital period
109.74 mins
Loading maneuver chart data...
Loading SW <> Apogee altitude chart data...
Loading historical data...
Loading historical data...
Loading historical data...
Loading historical data...
Loading historical data...
Loading historical data...
Loading historical data...

ONEWEB-0051 Visibility forecast

Observer location: undefined°, undefined°

Span
Click to sort rows by Start time (UTC) header in descending order
Start Az.
Max El. time (UTC)
Max El. Az.
Max El.
End time (UTC)
End Az.
13 mins2025-05-09 10:11:27.864Z3.394° NNE2025-05-09 10:17:27.864Z57.152° ENE43.842°2025-05-09 10:24:27.864Z173.898° S
8 mins2025-05-09 12:03:27.864Z318.481° NNW2025-05-09 12:06:27.864Z291.183° WNW17.693°2025-05-09 12:11:27.864Z247.073° WSW
4 mins2025-05-09 20:46:27.864Z81.456° E2025-05-09 20:47:27.864Z72.713° E13.257°2025-05-09 20:50:27.864Z47.32° ENE
13 mins2025-05-09 22:30:27.864Z175.09° S2025-05-09 22:36:27.864Z82.18° E44.844°2025-05-09 22:43:27.864Z2.157° NNE
7 mins2025-05-10 00:24:27.864Z262.28° W2025-05-10 00:27:27.864Z289.728° WNW15.792°2025-05-10 00:31:27.864Z323.607° NNW
|